Regional Weather Roundup
Issued by NWS

Home | Current Version | Previous Version | Graphics & Text | Print | Product List | Glossary On
Versions: 1 2 3 4 5 6 7 8 9 10 11 12 13 14 15 16 17 18 19 20 21 22 23 24 25 26 27 28 29 30 31 32 33 34 35 36 37 38 39 40 41 42 43 44 45 46 47 48 49 50
000
ASUS43 KLSX 211807
RWRMO

WEATHER SUMMARY FOR MISSOURI
NATIONAL WEATHER SERVICE SPRINGFIELD MO
100 PM CDT SAT OCT 21 2017

NOTE: "FAIR" INDICATES FEW OR NO CLOUDS BELOW 12,000 FEET WITH NO
       SIGNIFICANT WEATHER AND/OR OBSTRUCTIONS TO VISIBILITY.
       CURRENT SKY AND/OR WEATHER CONDITIONS ARE NOT AVAILABLE FOR
       CHILLICOTHE AND FARMINGTON.

MOZ001>031-035>038-043-044-053-054-211900-
...NORTHERN AND WESTERN MISSOURI...

CITY           SKY/WX    TMP DP  RH WIND       PRES   REMARKS
KANSAS CTY INT CLOUDY    72  63  73 S26G35    29.80S
6HR MIN TEMP:  65; 6HR MAX TEMP:  73;

KANSAS C DTWN  MOSUNNY   76  65  68 S17G28    29.82F
6HR MIN TEMP:  66; 6HR MAX TEMP:  76;

LEE`S SUMMIT   CLOUDY    75  64  68 S23G38    29.84F
6HR MIN TEMP:  64; 6HR MAX TEMP:  75;

ST JOSEPH      LGT RAIN  72  64  76 S15G24    29.79R
6HR MIN TEMP:  66; 6HR MAX TEMP:  72; 6HR PCP: TRACE;

CHILLICOTHE      N/A     78  64  61 S18G29    29.83F
6HR MIN TEMP:  64; 6HR MAX TEMP:  78;

KIRKSVILLE     MOSUNNY   78  64  61 SW21G30   29.88F
6HR MIN TEMP:  61; 6HR MAX TEMP:  79;


$$
MOZ066>068-077>081-088>096-101>105-211900-
...SOUTHWEST MISSOURI...

CITY           SKY/WX    TMP DP  RH WIND       PRES   REMARKS
SPRINGFIELD    MOSUNNY   77  64  64 S18G29    29.94F
6HR MIN TEMP:  62; 6HR MAX TEMP:  77;

JOPLIN         MOSUNNY   78  65  63 S21G29    29.89F
6HR MIN TEMP:  65; 6HR MAX TEMP:  79;

BRANSON        PTSUNNY   77  63  61 S12       30.00F

$$
MOZ032>034-039>042-045>050-055>058-069>072-211900-
...CENTRAL MISSOURI...

CITY           SKY/WX    TMP DP  RH WIND       PRES   REMARKS
COLUMBIA       MOSUNNY   78  62  57 S18G31    29.94F
6HR MIN TEMP:  61; 6HR MAX TEMP:  78;

JEFFERSON CITY PTSUNNY   78  60  53 S14G21    29.94F
6HR MIN TEMP:  63; 6HR MAX TEMP:  78;

ROLLA          MOSUNNY   76  63  64 S21G37    30.00F
6HR MIN TEMP:  65; 6HR MAX TEMP:  76;

SEDALIA        SUNNY     77  63  61 S20G38    29.91F
6HR MIN TEMP:  64; 6HR MAX TEMP:  79;

WHITEMAN AFB   MOSUNNY   77  63  63 S21G31    29.84F
WARRENSBURG    CLOUDY    77  61  57 S13G30    29.86F
OSAGE BEACH    PTSUNNY   76  63  64 S20G26    29.96F

$$
MOZ051-052-059>065-211900-
...EAST CENTRAL MISSOURI...

CITY           SKY/WX    TMP DP  RH WIND       PRES   REMARKS
ST LOUIS INTL  CLOUDY    71  64  78 SE12      30.03F
6HR MIN TEMP:  62; 6HR MAX TEMP:  71; 6HR PCP:  0.01;

SPIRIT OF STL  PTSUNNY   73  64  73 SE7       30.02F
6HR MIN TEMP:  64; 6HR MAX TEMP:  73; 6HR PCP: TRACE;

ST CHARLES     CLOUDY    68  62  81 SE7       30.03F
6HR MIN TEMP:  60; 6HR MAX TEMP:  72; 6HR PCP: TRACE;


$$
MOZ072>076-082>087-097>100-106>115-211900-
...SOUTH CENTRAL AND SOUTHEAST MISSOURI...

CITY           SKY/WX    TMP DP  RH WIND       PRES   REMARKS
CAPE GIRARDEAU MOSUNNY   79  54  41 S16G23    30.09F
6HR MIN TEMP:  59; 6HR MAX TEMP:  79; 6HR PCP: TRACE;

FARMINGTON     MOSUNNY   76  61  59 S16G22    30.06F
6HR MIN TEMP:  61; 6HR MAX TEMP:  76; 6HR PCP: TRACE;

POPLAR BLUFF   PTSUNNY   80  61  52 S16G25    30.07F
6HR MIN TEMP:  55; 6HR MAX TEMP:  80;

WEST PLAINS    PTSUNNY   74  64  71 S15G21    30.05F
6HR MIN TEMP:  61; 6HR MAX TEMP:  74; 6HR PCP: TRACE;


$$



USA.gov is the U.S. government's official web portal to all federal, state and local government web resources and services.